Regional Weather Roundup
Issued by NWS Bismarck, ND

Home | Current Version | Previous Version | Text Only | Print | Product List | Glossary On
Versions: 1 2 3 4 5 6 7 8 9 10 11 12 13 14 15 16 17 18 19 20 21 22 23 24 25 26 27 28 29 30 31 32 33 34 35 36 37 38 39 40 41 42 43 44 45 46 47 48 49 50
000
ASUS43 KBIS 301310
RWRBIS

NWR BROADCAST TEXT
NATIONAL WEATHER SERVICE BISMARCK ND
800 AM CDT TUE MAY 30 2017

NOTE: "FAIR" INDICATES FEW OR NO CLOUDS BELOW 12,000 FEET WITH NO
SIGNIFICANT WEATHER AND/OR OBSTRUCTIONS TO VISIBILITY.


CITY           SKY/WX    TMP DP  RH WIND       PRES   REMARKS
WILLISTON      FAIR      49  37  63 N8        30.16R
MINOT          FAIR      50  39  66 NW17G24   30.07R
MINOT AFB      FAIR      48  40  71 NW16      30.07R
BISMARCK       FAIR      48  38  68 NW5       30.10R
DICKINSON      FAIR      45  32  60 NW9       30.10R
GARRISON         N/A     48  40  73 NW17      30.08S
HETTINGER ARPT FAIR      44  34  67 CALM      30.11S
JAMESTOWN      CLOUDY    48  42  80 NW13      30.01R
HAZEN          FAIR      43  39  87 W6        30.12S
LINTON           N/A     43  43 100 NW6       30.09S
MANDAN         PTSUNNY   48  41  76 NW10      30.09R
STANLEY        FAIR      46  45  93 NW12      30.13S
TIOGA          FAIR      46  46 100 NW8       30.14S
WATFORD CITY   FAIR      43  36  75 CALM      30.14R
$$

CITY           SKY/WX    TMP DP  RH WIND       PRES   REMARKS
GRAND FORKS    CLOUDY    48  45  89 NW16      29.96R
GRAND FORKS AF CLOUDY    46  45  93 N12       29.97R
DEVILS LAKE    CLOUDY    46  42  86 N15       30.02R
FARGO          CLOUDY    49  44  83 NW13      29.97R
CAVALIER       CLOUDY    46  43  87 NW13G20   29.96R
GRAFTON        CLOUDY    46  46 100 NW14G22   29.98R
GWINNER        CLOUDY    48  43  81 MISG      30.00R
LANGDON        CLOUDY    45  45 100 NW16      29.98R
ROLLA          CLOUDY    45  41  87 NW15G21   30.02R
$$

CITY           SKY/WX    TMP DP  RH WIND       PRES   REMARKS
ABERDEEN       FAIR      52  38  58 NW14      30.04R
MOBRIDGE       FAIR      48  38  68 N6        30.05S
BUFFALO          N/A     50  38  63 SW3       30.06S
RAPID CITY     FAIR      52  32  46 W7        30.13S
GLASGOW        FAIR      48  28  46 E6        30.16R
SIDNEY         FAIR      48  33  56 NW8       30.16R
WOLF POINT     FAIR      47  30  51 E7        30.18R
GLENDIVE       FAIR      50  30  46 N5        30.16R
MILES CITY     FAIR      48  28  46 CALM      30.14S
BAKER          FAIR      44  33  65 CALM      30.15R
$$

CITY           SKY/WX    TMP DP  RH WIND       PRES   REMARKS
BILLINGS       FAIR      50  41  71 SW5       30.14S
GREAT FALLS    FAIR      50  46  86 S7        30.11S
REGINA         MOSUNNY   45  37  76 NW6       30.18R
ESTEVAN        MOSUNNY   46  39  76 N13       30.14R
$$





USA.gov is the U.S. government's official web portal to all federal, state and local government web resources and services.